visible

Flag for Slovakia Weather past 2 weeks in Piešťany, Slovakia

Now
57 °F

Scattered clouds.


Feels Like: 54 °F
Forecast: 38 / 61 °F
Wind: 16 mph from Northwest

Location: Piestany

Current Time: Sep 23, 2014 at 12:33:37 PM

Latest Report: Sep 23, 2014 at 12:00 PM


Visibility: N/A

Pressure: 29.98 "Hg

Humidity: 63%

Dew point: 45 °F

Location of PiešťanyLocation

Historic Weather in Piešťany — Graph

°F

Piešťany temperature yesterday

Maximum temperature yesterday: 63 °F (at 12:00 AM)
Minimum temperature yesterday: 50 °F (at 9:30 PM)
Average temperature yesterday: 58 °F

Past Weeks' High & Low Weather Summary

 TemperatureHumidityPressure
High79 °F (Sep 8, 2:30 PM)100% (Sep 9, 6:00 AM)30.12 "Hg (Sep 9, 6:00 AM)
Low45 °F (Sep 23, 4:30 AM)39% (Sep 8, 4:30 PM)29.74 "Hg (Sep 22, 5:00 AM)
Average63 °F81%29.99 "Hg
* Reported Sep 8 11:00 AM — Sep 23 11:30 AM, Piešťany, Weather by CustomWeather, © 2014

Note: Actual official high and low records may vary slightly from our data, if they occured in-between our weather recording intervals... More about our weather records

Advertising

Piešťany weather history for previous 24 hours

 ConditionsComfort  
Time TempWeatherWind HumidityBarometerVisibility
11:30 AM
Sep 23
55 °FBroken clouds.18 mph67%29.98 "HgN/A
11:00 AM55 °FBroken clouds.20 mph67%29.98 "HgN/A
10:30 AM54 °FBroken clouds.10 mph77%29.98 "HgN/A
10:00 AM52 °FBroken clouds.8 mph82%29.98 "HgN/A
9:30 AM52 °FLight rain. Broken clouds.9 mph77%29.95 "HgN/A
9:00 AM50 °FBroken clouds.7 mph82%29.95 "HgN/A
8:30 AM50 °FBroken clouds.7 mph82%29.95 "HgN/A
8:00 AM50 °FBroken clouds.3 mph82%29.92 "HgN/A
7:30 AM48 °FPassing clouds.1 mph82%29.92 "HgN/A
7:00 AM48 °FPassing clouds.5 mph82%29.92 "HgN/A
6:30 AM46 °FPassing clouds.3 mph82%29.92 "HgN/A
6:00 AM46 °FPassing clouds.7 mph82%29.89 "HgN/A
5:30 AM46 °FCool.9 mph82%29.89 "HgN/A
5:00 AM45 °FQuite cool.8 mph87%29.89 "HgN/A
4:30 AM45 °FPassing clouds.7 mph81%29.89 "HgN/A
4:00 AM46 °FPassing clouds.8 mph82%29.89 "HgN/A
3:30 AM46 °FPassing clouds.9 mph87%29.89 "HgN/A
3:00 AM46 °FPassing clouds.10 mph82%29.92 "HgN/A
2:30 AM46 °FPassing clouds.7 mph87%29.92 "HgN/A
2:00 AM48 °FPassing clouds.12 mph82%29.89 "HgN/A
1:30 AM50 °FPassing clouds.8 mph82%29.92 "HgN/A
1:00 AM48 °FMostly cloudy.2 mph82%29.92 "HgN/A
12:30 AM50 °FOvercast.2 mph82%29.92 "HgN/A
12:00 AM48 °FPassing clouds.2 mph87%29.92 "HgN/A
11:30 PM
Sep 22
50 °FCool.9 mph82%29.89 "HgN/A
11:00 PM50 °FCool.6 mph82%29.89 "HgN/A
10:30 PM50 °FPartly cloudy.2 mph82%29.89 "HgN/A
10:00 PM52 °FClear.1 mph82%29.89 "Hg10 mi
9:30 PM50 °FClear.2 mph88%29.89 "Hg10 mi
9:00 PM52 °FClear.1 mph82%29.89 "Hg10 mi
8:30 PM52 °FClear.2 mph82%29.89 "Hg10 mi
8:00 PM52 °FClear.1 mph82%29.86 "Hg10 mi
7:30 PM52 °FSunny.2 mph82%29.86 "Hg10 mi
7:00 PM54 °FPartly sunny.3 mph72%29.86 "HgN/A
6:30 PM59 °FPassing clouds.14 mph63%29.86 "HgN/A
6:00 PM61 °FSunny.8 mph59%29.83 "Hg10 mi
5:30 PM61 °FPassing clouds.7 mph55%29.83 "HgN/A
5:00 PM61 °FPartly sunny.10 mph55%29.83 "HgN/A
4:30 PM61 °FPassing clouds.14 mph52%29.83 "HgN/A
4:00 PM61 °FScattered clouds.14 mph55%29.83 "HgN/A
3:30 PM59 °FScattered clouds.15 mph59%29.83 "HgN/A
3:00 PM59 °FScattered clouds.16 mph59%29.83 "HgN/A
2:30 PM61 °FBroken clouds.16 mph59%29.83 "HgN/A
2:00 PM59 °FBroken clouds.10 mph68%29.83 "HgN/A
1:30 PM57 °FRain. Partly sunny.14 mph77%29.83 "HgN/A
1:00 PM61 °FPartly sunny.8 mph63%29.86 "HgN/A
12:30 PM59 °FPartly sunny.13 mph63%29.86 "HgN/A
12:00 PM59 °FPartly sunny.16 mph63%29.86 "HgN/A
Weather by CustomWeather, © 2014

See weather overviewHow to use our weather pages